STARLINK-5702 (55622 NORAD) Tracking and Keplerian Element Data

This shows tracking and keplerian element data for the satellite.

Feedback or suggestion? Click here.




ElementValue
Catalog55622
NameSTARLINK-5702
Epoch Orbit310
Epoch Day62.85380206
Epoch Year2023
RAAN237.7812
Inclination42.9986
Eccentricity0.0001531
Argument of Perigee272.6472
Mean Anonmoly87.422
Mean Motion15.7136584
Decay Rate0.00093062
L11 55622U 23020BF 23062.85380206 .00093062 00000+0 70490-3 0 9994
L22 55622 42.9986 237.7812 0001531 272.6472 87.4220 15.71365840 3107



Live tracking and technical data element details for STARLINK-5702 (NORAD 55622). STARLINK-5702 can be tracked NOW for your location showing map with azimuth and elevation plus other details from your city location.







IsCatalogInMostPopularTable: catalog: 55622, numindb: 3
Update: records affected: 1



GetName: 55622 STARLINK-5702

Hit Count: updated at: Wed, 22 Mar 2023 15:44:17 GMT